SL-16 DEB, 39726

Orbit data source: Space-Track

SL-16 DEB, 39726 is space debris in LEO originally from a launch on Fri, 25 Dec 1992 UTC launched from the Tyuratam Missile And Space Complex (TTMTR). Debris objects in space refer to the collection of defunct objects orbiting the Earth. Examples of debris include non-operational satellites, rocket bodies, and fragments generated from explosions, collisions, or faulty payload assembly.

Loading next visibility...
Identifier
39726, 1992-093KS
Orbit
LEO
Country
Flag of CISCIS
Related business
Manufacturer
Unknown
Mission
Spacecraft
Bus & Motor
Unknown
Mass
Unknown
Launch date (UTC)
1992-12-25 (33 years ago)
Launch vehicle
Unknown
Launch site
Tyuratam Missile And Space Complex (TTMTR)
Object type
Payload
Rocket body
Debris
Shape & HBR
Unknown shape, 0.1 m
Radar Cross Section
Small (<0.1 m²)

Expand to show TLE details & history
Last TLE update: 2 days ago

TLE from 2 days ago
0 SL-16 DEB
1 39726U 92093KS  26125.43515780  .00000159  00000-0  15113-3 0  9998
2 39726  71.1596   4.6303 0119854  55.1852 125.9201 13.91342572611586
Epoch: 2026-05-05T10:26Z
TLE epoch observation values (Epoch: 2026-05-05T10:26:37.633Z)
Latitude
-2.20725°
Longitude
165.41308°
Altitude
978.659 km
Speed
7.336 km/s
True Right ascension
12h 21m 31s
True Declination
-2° 11' 40"
Sunlit
Object was in full shadow at epoch
Visualization orbit readout
Latitude
Unknown
Longitude
Unknown
Altitude
Unknown
Speed
Unknown
Apparent Right ascension
Unknown
Apparent Declination
Unknown
Sunlit
N/A
Visualization observer readout
Local Sidereal Time
19:08:10
Azimuth
Unknown
Elevation
Unknown
Doppler factor
Unknown
Orbital elements
Apogee altitude
1,009.355 km
Perigee altitude
834.368 km
Semi-major axis
7,299.999 km
Eccentricity
0.01199
Inclination
71.1596°
RAAN
4.6303°
Arg. of periapsis
55.1852°
True anomaly
127.02259°
Mean anomaly
125.9201°
Eccentric anomaly
126.47232°
Mean motion
3.47984 °/min
Orbital period
103.45 mins
BSTAR
0.00015113
Loading maneuver chart data...
Computing Atmospheric mass density...
Loading historical data...
Loading historical data...
Loading historical data...
Loading historical data...
Loading historical data...
Loading historical data...
Loading historical data...

Documentation

Showing up to 5 results
|